Location: Stanford
(52.2833°N, 2.4333°W)
Time: 18:14:34
(UTC+00:00)

Cosmos 2228 - Pass Details

Date: 22 January 2021
Orbit: 589 x 617 km, 82.5° (Epoch: 27 February)

Event Time Altitude Azimuth Distance (km) Brightness Sun altitude
Rises 17:25:23 0° 349° (N) 2,842 6.3 -7.1°
Reaches altitude 10° 17:27:35 10° 350° (N) 1,938 5.5 -7.5°
Maximum altitude 17:31:53 87° 76° (ENE) 604 3.0 -8.1°
Drops below altitude 10° 17:36:10 10° 170° (S) 1,935 5.7 -8.7°
Sets 17:38:22 0° 170° (S) 2,837 6.6 -9.0°
